Location: Unspecified
(0.0000°N, 0.0000°E)
Time: 03:35:49
(UTC+00:00)

deb Explorer IX - Pass Details

Date: 18 December 2018
Orbit: 536 x 1117 km, 38.8° (Epoch: 17 March)

Event Time Altitude Azimuth Distance (km) Brightness Sun altitude
Exits shadow 02:27:33 12° 153° (SSE) 2,439 ? -46.5°
Drops below altitude 10° 02:28:07 10° 151° (SSE) 2,627 ? -46.4°
Sets 02:31:06 0° 144° (SE) 3,668 ? -45.8°
